Regional Weather Roundup
Issued by NWS

Home | Current Version | Previous Version | Graphics & Text | Print | Product List | Glossary On
Versions: 1 2 3 4 5 6 7 8 9 10 11 12 13 14 15 16 17 18 19 20 21 22 23 24 25 26 27 28 29 30 31 32 33 34 35 36 37 38 39 40 41 42 43 44 45 46 47 48 49 50
000
ASUS45 KCYS 261910
RWRWY

WYOMING REGIONAL WEATHER ROUNDUP
NATIONAL WEATHER SERVICE CHEYENNE WY
100 PM MDT WED APR 26 2017

NOTE:  "FAIR" INDICATES FEW OR NO CLOUDS BELOW 12,000 FEET
WITH NO SIGNIFICANT WEATHER AND/OR OBSTRUCTIONS TO VISIBILITY.

WYZ001-262000-
YELLOWSTONE NATIONAL PARK

CITY           SKY/WX    TMP DP  RH WIND       PRES   REMARKS
LK YELLOWSTONE   N/A     33  27  78 W6        29.77F WCI  28
W YELLOWSTONE  NOT AVBL

$$
WYZ002>013-054>058-071-098>099-262000-
NORTHERN WYOMING

CITY           SKY/WX    TMP DP  RH WIND       PRES   REMARKS
JACKSON        PTSUNNY   39  28  65 SW12      29.79F WCI  32
CODY           CLOUDY    47  33  58 NE7       29.69F
GREYBULL       PTSUNNY   53  31  42 VRB7      29.67F
WORLAND        FAIR      52  38  58 VRB5      29.68F
SHERIDAN       CLOUDY    35  28  75 CALM      29.76F
BUFFALO        PTSUNNY   34  27  75 CALM      29.73F
GILLETTE       CLOUDY    35  32  88 CALM      29.75F
HULETT         CLOUDY    32  28  86 NW3       29.77F
NEWCASTLE      FAIR      37  32  81 SW6       29.76F WCI  33

$$
WYZ014>020-022>026-101>103-262000-
CENTRAL WYOMING

CITY           SKY/WX    TMP DP  RH WIND       PRES   REMARKS
BIG PINEY      PTSUNNY   44  25  47 NW13      29.78F
PINEDALE       CLOUDY    37  30  75 N8        29.79S WCI  31
DUBOIS         CLOUDY    41  25  52 W21G30    29.71F
LANDER         CLOUDY    52  24  33 VRB3      29.67F
RIVERTON       FAIR      51  28  41 VRB3      29.70F
CASPER         FAIR      51  28  41 SW13G22   29.71F
DOUGLAS        FAIR      54  31  41 NW12      29.72F

$$
WYZ021-027>030-104>119-262000-
SOUTHERN WYOMING

CITY           SKY/WX    TMP DP  RH WIND       PRES   REMARKS
EVANSTON       PTSUNNY   43  30  60 SW23G31   29.85S
KEMMERER         N/A     39  30  70 W20G25    29.83S WCI  30
FORT BRIDGER   CLOUDY    43  31  61 W15G23    29.87F
ROCK SPRINGS   LGT RAIN  40  31  70 W18G30    29.81F WCI  31
DIXON            N/A     42  33  72 NW8       29.85F
RAWLINS        CLOUDY    44  28  53 W18G29    29.79F
SARATOGA       CLOUDY    37  34  87 SW18      29.82F WCI  27
LARAMIE        FAIR      44  19  36 NW18      29.75F
CHEYENNE       FAIR      50  21  32 NW21G30   29.73F
TORRINGTON     FAIR      53  29  39 VRB5      29.71F
PINE BLUFFS    CLOUDY    46  36  66 N8        29.73F

$$



USA.gov is the U.S. government's official web portal to all federal, state and local government web resources and services.